Weather History for KCLT - August, 2013

Change the Weather History Date:

Wednesday, August 21, 2013

  Actual Average Record
Temperature  
Mean Temperature 77 °F 77 °F  
Max Temperature 85 °F 87 °F 103 °F (1983)
Min Temperature 69 °F 67 °F 56 °F (1998)
Degree Days  
Heating Degree Days 0 0  
Month to date heating degree days 1 0  
Since 1 June heating degree days 1 3  
Since 1 July heating degree days 1 0  
Cooling Degree Days 12 12  
Month to date cooling degree days 239 269  
Year to date cooling degree days 1171 1163  
Since 1 June cooling degree days 1002 1000  
Growing Degree Days 27 (Base 50)    
Moisture  
Dew Point 72 °F    
Average Humidity 81    
Maximum Humidity 100    
Minimum Humidity 62    
Precipitation  
Precipitation T in 0.13 in 2.22 in (1898)
Month to date precipitation 1.60 2.89  
Year to date precipitation 35.12 27.27  
Snow  
Snow 0.00 in 0.00 in 0.00 in ()
Month to date snowfall 0.0 0.0  
Since 1 June snowfall 0.0 0.0  
Since 1 July snowfall 0.0 0.0  
Snow Depth 0.00 in    
Sea Level Pressure  
Sea Level Pressure 30.19 in    
Wind  
Wind Speed 3 mph (SW)    
Max Wind Speed 10 mph    
Max Gust Speed 14 mph    
Visibility 10 miles    
Events Rain , Thunderstorm    
T = Trace of Precipitation, MM = Missing Value Source: NWS Daily Summary

Daily Weather History Graph

Daily Weather History Graph

Search for Another Location

Airport or City:

Trip Planner

Search our weather history database for the weather conditions in past years. The results will help you decide how hot, cold, wet, or windy it might be!

Date:

Astronomy

Aug. 21, 2013 Rise Set
Actual Time 6:48 AM EDT 8:04 PM EDT
Civil Twilight 6:21 AM EDT 8:31 PM EDT
Nautical Twilight 5:50 AM EDT 9:02 PM EDT
Astronomical Twilight 5:17 AM EDT 9:35 PM EDT
Moon 8:17 PM EDT (8/21) 7:23 AM EDT (8/21)
Length of Visible Light 14h 09m
Length of Day
13h 16m
Full, 100% of the Moon is Illuminated
Aug 21
Full
Aug 28
Last Quarter
Sep 5
New
Sep 12
First Quarter
Sep 19
Full

Hourly Weather History & Observations

Time (EDT) Temp. Heat Index Dew Point Humidity Pressure Visibility Wind Dir Wind Speed Gust Speed Precip Events Conditions
12:52 AM 73.0 °F - 72.0 °F 96% 30.19 in 10.0 mi Calm Calm - N/A   Overcast
1:52 AM 72.0 °F - 71.1 °F 97% 30.18 in 10.0 mi Calm Calm - N/A   Overcast
2:52 AM 72.0 °F - 71.1 °F 97% 30.17 in 10.0 mi NW 4.6 mph - N/A   Overcast
3:52 AM 71.1 °F - 71.1 °F 100% 30.17 in 10.0 mi Calm Calm - N/A   Overcast
4:52 AM 71.1 °F - 71.1 °F 100% 30.16 in 10.0 mi Calm Calm - N/A   Overcast
5:01 AM 71.6 °F - 71.6 °F 100% 30.19 in 10.0 mi Calm Calm - N/A   Overcast
5:52 AM 72.0 °F - 71.1 °F 97% 30.17 in 10.0 mi Calm Calm - N/A   Overcast
6:07 AM 71.6 °F - 69.8 °F 94% 30.20 in 10.0 mi Calm Calm - N/A   Mostly Cloudy
6:52 AM 73.0 °F - 72.0 °F 96% 30.20 in 10.0 mi SE 3.5 mph - N/A   Mostly Cloudy
7:52 AM 73.9 °F - 73.0 °F 97% 30.20 in 10.0 mi SSE 5.8 mph - N/A   Mostly Cloudy
8:34 AM 75.2 °F - 73.4 °F 94% 30.24 in 10.0 mi South 4.6 mph - N/A   Mostly Cloudy
8:52 AM 75.0 °F - 73.0 °F 94% 30.22 in 10.0 mi Calm Calm - N/A   Mostly Cloudy
9:01 AM 75.2 °F - 73.4 °F 94% 30.24 in 10.0 mi Calm Calm - N/A   Scattered Clouds
9:08 AM 75.2 °F - 73.4 °F 94% 30.24 in 10.0 mi Calm Calm - N/A   Mostly Cloudy
9:23 AM 77.0 °F - 73.4 °F 89% 30.24 in 10.0 mi Calm Calm - N/A   Mostly Cloudy
9:52 AM 78.1 °F - 73.0 °F 84% 30.22 in 10.0 mi South 5.8 mph - N/A   Mostly Cloudy
10:52 AM 79.0 °F - 72.0 °F 79% 30.23 in 10.0 mi SW 3.5 mph - N/A   Mostly Cloudy
11:52 AM 77.0 °F - 73.0 °F 88% 30.22 in 10.0 mi SW 4.6 mph - 0.00 in Rain Light Rain
12:52 PM 81.0 °F 86.2 °F 73.9 °F 79% 30.22 in 10.0 mi SSW 5.8 mph - 0.00 in   Overcast
1:52 PM 82.0 °F 87.4 °F 73.0 °F 74% 30.20 in 10.0 mi Variable 4.6 mph - N/A   Mostly Cloudy
2:52 PM 82.0 °F 87.4 °F 73.0 °F 74% 30.18 in 10.0 mi West 4.6 mph - N/A   Mostly Cloudy
3:52 PM 81.0 °F 85.8 °F 73.0 °F 77% 30.18 in 10.0 mi WNW 10.4 mph - N/A   Mostly Cloudy
4:10 PM 78.8 °F - 71.6 °F 78% 30.19 in 10.0 mi West 5.8 mph - N/A Thunderstorm Thunderstorm
4:52 PM 75.9 °F - 72.0 °F 87% 30.15 in 10.0 mi WSW 3.5 mph - 0.00 in Rain , Thunderstorm Light Thunderstorms and Rain
5:15 PM 77.0 °F - 71.6 °F 83% 30.16 in 10.0 mi NW 3.5 mph - 0.00 in   Mostly Cloudy
5:52 PM 77.0 °F - 72.0 °F 84% 30.16 in 10.0 mi Calm Calm - 0.00 in   Mostly Cloudy
6:52 PM 80.1 °F 82.3 °F 66.9 °F 64% 30.14 in 10.0 mi Calm Calm - N/A   Mostly Cloudy
7:52 PM 75.0 °F - 69.1 °F 82% 30.13 in 10.0 mi West 3.5 mph - N/A   Mostly Cloudy
8:52 PM 73.0 °F - 70.0 °F 90% 30.12 in 10.0 mi SSW 3.5 mph - N/A   Mostly Cloudy
9:52 PM 73.9 °F - 71.1 °F 91% 30.17 in 10.0 mi SE 10.4 mph - N/A   Mostly Cloudy
10:52 PM 73.0 °F - 71.1 °F 93% 30.18 in 10.0 mi South 3.5 mph - N/A   Mostly Cloudy
11:52 PM 72.0 °F - 71.1 °F 97% 30.16 in 10.0 mi Calm Calm - N/A   Scattered Clouds